Погода в Павлодаре

Поиск расширенной информации на нашем сайте:

Полезная информация:

Новости сайта



02.01.2020
Опубликован Долгосрочный прогноз погоды по городам России и ближнего зарубежья на январь 2020 года.
Карты: Прогноз на январь и февраль 2020 года, Сравнение прогнозируемой аномалии приземной температуры воздуха на январь 2020 года по разным моделям.




Погода в Павлодаре - сегодня

Время (UTC), дата Ветер
(°,м/с) 
Видим.   Явления Облачность Т
(°С)
Тd
(°С)
f(%) Тe
(°С)
Pmin
(гПа)
dP
(гПа)
Po
(мм)
O2
(г/м3)
Тmin Tmax R s Состояние
почвы
09 22.10.21 210 (ЮЗ) 20000 м    10/10 600 м кучево-дожд. 
[Cb cap]
+4.4 -2.4 61 +2  1021.7  0.9  755  300           
12 22.10.21 240 (ЮЗ) 20000 м  {ливн. осадки}  10/10 600 м кучево-дожд. 
[Cb cap]
+4.7 -6.2 45 +3  1023  1.2  756  300           
15 22.10.21 210 (ЮЗ) 20000 м    10/10 600 м кучево-дожд. 
[Cb cap]
+3.9 -6.2 48 +2  1023.6  0.5  756  301    +7.1       
18 22.10.21 190 (Ю) 20000 м    9/9 600 м кучево-дожд. 
[Cb cap]
+3.1 -3.4 62 1023.5  -0.1  756  302    +7.1  0.0     
21 22.10.21 220 (ЮЗ) 6{15}  20000 м    10/10 600 м кучево-дожд. 
[Cb cap]
+3.8 -0.2 75 +1  1023  -0.4  756  300           
00 23.10.21 230 (ЮЗ) 20000 м    10/10 600 м кучево-дожд. 
[Cb cap]
+4.6 +0.4 74 +2  1022.3  -0.7  756  299           
03 23.10.21 220 (ЮЗ) 20000 м    10/10 600 м кучево-дожд. 
[Cb cap]
+4.9 +1.3 77 +2  1021.8  -0.5  755  299           
06 23.10.21 210 (ЮЗ) 8{15}  10 км  слаб. ливневой дождь  10/10 600 м кучево-дожд. 
[Cb cap]
+4.9 +4.2 95 +2  1020.8  -1  754  298  +2.6         
09 23.10.21 210 (ЮЗ) 7{18}  20000 м  {ливн. осадки}  9/8 600 м кучево-дожд., средняя 
[Cb cap|Ac und]
+8.8 +3.5 69 +7  1019.2  -1.3  753  294           
12 23.10.21 220 (ЮЗ) 6{15}  20000 м  {ливн. осадки}  10/10 600 м кучево-дожд. 
[Cb cap]
+10.9 +2.8 57 +9  1019.2  0.1  754  292           
15 23.10.21 230 (ЮЗ) 20000 м    10/9 600 м кучево-дожд., средняя 
[Cb cap|Ac und]
+11 +2.6 56 +9  1020.2  754  292    +11.1       
18 23.10.21 210 (ЮЗ) 20000 м    9/8 1000 м кучево-дожд., средняя 
[Cb cap|Ac und]
+10 +3.6 64 +9  1020.5  0.3  755  293    +11.1  0.3     
21 23.10.21 230 (ЮЗ) 20000 м    10/8 1000 м кучево-дожд., средняя 
[Cb cap|Ac und]
+10.4 +5.6 72 +9  1020.7  0.2  755  292           
00 24.10.21 200 (Ю) 20000 м    10/8 1000 м кучево-дожд., средняя 
[Cb cap|Ac und]
+10 +6.1 77 +9  1021.6  0.8  755  293           
03 24.10.21 240 (ЮЗ) 20000 м    9/6 1000 м кучево-дожд., средняя 
[Cb cap|Ac trans]
+10.4 +6.5 77 +10  1023  1.4  756  292           
06 24.10.21 250 (З) 20000 м    10/3 1000 м средняя 
[Sc diur, vesp|Ac und]
+12.9 +6.6 66 +12  1023.6  0.8  757  290  +9.5         
09 24.10.21 250 (З) 20000 м    8/0 средняя 
[Ac trans]
+16 +6.3 53 +16  1022.6  -0.9  756  287           
12 24.10.21 200 (Ю) 20000 м    9/9 1000 м 
[Sc]
+13.3 +5.9 61 +13  1023.3  0.6  757  290           
15 24.10.21 210 (ЮЗ) 20000 м    8/0 средняя 
[Ac trans]
+13.1 +4.9 57 +13  1023.2  -0.1  757  290    +16.1       
18 24.10.21 220 (ЮЗ) 20000 м    6/0 средняя 
[Ac trans]
+9.9 +2.6 60 +9  1023.1  -0.3  756  294    +16.1       
21 24.10.21 210 (ЮЗ) 20000 м    4/0 верхняя 
[Ci fib]
+7.1 +0.8 64 +6  1022.5  -0.7  756  297           
00 25.10.21 210 (ЮЗ) 20000 м    4/0 верхняя 
[Ci fib]
+5.4 +1.3 75 +4  1021.5  -1.1  755  298           
03 25.10.21 190 (Ю) 20000 м    3/0 верхняя 
[Ci fib]
+4.9 +1.6 79 +4  1021.3  -0.2  755  299           
06 25.10.21 240 (ЮЗ) 20000 м    8/0 средняя, верхняя 
[Ac trans|Cs]
+11.9 +0.2 45 +11  1020.2  -0.7  754  291  +3         
09 25.10.21 220 (ЮЗ) 20000 м    9/0 средняя, верхняя 
[Ac trans|Ci fib]
+15.6 -2.2 29 +16  1018.4  -1.7  753  287           
Время (UTC), дата Ветер
(°,м/с) 
Видим.   Явления Облачность Т
(°С)
Тd
(°С)
f(%) Тe
(°С)
Pmin
(гПа)
dP
(гПа)
Po
(мм)
O2
(г/м3)
Тmin Tmax R s Состояние
почвы

Для получения пояснительной информации подведите курсор к названию столбца.

ПОГОДА в Павлодаре - архив

Всё, что Вы хотите узнать о погоде в Павлодаре - удобно и подробно!

Выберите нужную дату (начиная с 1 января 2019* года) и нажмите кнопку "Найти".
Будут отображены архивные сводки погоды по пункту Павлодар, начиная с указанной даты.


Отображать данные в формате CSV (для использования в таблицах Excel)


Внимание! Наш архив погоды предназначен исключительно для личного некоммерческого использования в познавательных целях. Если Вам необходимы официальные справки о состоянии погоды (для производственных, юридических, коммерческих и т.п. целей), обращайтесь в органы Росгидромета.

*Примечание: данная дата относится к архиву по метеостанциям СССР (Россия, СНГ, Балтия).
Архив по метеостанциям Зарубежной Европы и Азии (кроме Китая) хранится 10 дней, по другим регионам земного шара (Китай, Африка, Америка, Австралия, Океания) - 1 день.

Павлодар - район местоположения метеостанции


Название, широта, долгота, высота метеостанции:
Павлодар 52.1°ш. 77.1°д. 125 м над ур. моря [Казахстан]

Дополнительная информация

В oтличие oт бoльшинства пoгoдных сайтoв мы публикуем пoдрoбную метеoинфoрмацию в детальнoм прoфессиoнальнoм фoрмате.

Характеристики температуры и влажнoсти вoздуха измеряются на высoте 2 м в тени вдали oт зданий и деревьев.
Скoрoсть ветра измеряется на высoте 10 м (на урoвне рoста челoвека скoрoсть ветра ниже в 1.5-2 раза). Если метеoстанция нахoдится в гoрoде или в лесу, тo скoрoсть ветра занижена на 2-4 м/с пo сравнению с oткрытым местoм. Скoрoсть ветра над акватoриями крупных рек и oзёр, а также на вершинах хoлмoв на 2-5 м/с выше, чем в oбычных услoвиях.
Атмoсфернoе давление в разных тoчках местнoсти мoжет значительнo oтличаться oт давления на метеoстанции, в зависимoсти oт услoвий рельефа (при пoдъёме на 10 м давление пoнижается примернo на 1 мм рт.ст.).